Dewpoint
56 55 55 55 55 55 55 55 56 56 56 56 57 57 57 58 58 58 58 58 58 58 57 57 57 57 57 57 57 57 57 54 52 52 50 45 50 52 64 58 62 65 66 59 58 57 54 52 49 48 49 50 51 53 57 62 63 65 61 57 54 56 57 59 57 58 62 62 64 64 66 65 64 66 67 69 67 67 67 67 67 65 64 64 65 66 66 66
56 55 55 55 55 55 55 55 55 56 56 56 56 57 57 57 58 58 58 58 58 58 58 58 57 57 57 57 57 58 56 53 51 51 48 53 56 57 61 60 66 67 62 47 51 49 47 47 46 47 48 50 54 53 56 56 61 62 59 56 54 56 58 61 61 63 62 62 64 65 66 66 64 67 68 65 65 64 63 64 64 63 64 64 65 65 65 66
55 55 55 55 55 55 55 55 55 55 55 55 56 56 56 57 57 57 57 58 58 58 58 58 57 57 57 57 58 59 54 52 52 50 50 64 59 60 62 65 69 68 59 43 44 45 40 43 43 47 47 49 52 52 57 55 59 61 59 56 57 58 59 64 63 63 62 64 65 65 65 66 67 67 68 65 64 64 62 62 62 63 63 63 64 64 65 67
55 55 55 55 55 54 55 55 55 55 55 55 56 56 56 56 57 57 57 57 58 58 58 58 57 56 57 57 59 56 54 51 45 47 49 66 64 63 64 64 69 67 53 40 37 40 39 37 42 47 48 48 49 52 53 55 59 59 59 56 57 58 58 62 65 64 64 65 64 65 66 65 67 67 67 65 63 63 63 62 61 62 63 63 64 64 65 67
55 55 55 55 55 54 54 55 55 55 55 55 56 56 56 56 56 56 57 57 57 58 58 58 57 57 57 58 58 54 50 38 45 49 57 68 66 65 66 66 67 62 47 39 35 35 36 38 41 45 49 49 50 52 51 53 55 57 58 58 57 58 57 63 64 65 64 65 64 64 62 63 69 67 66 64 61 61 62 62 62 63 63 63 63 64 65 66
54 55 55 54 54 54 54 54 55 55 55 55 55 56 56 56 56 56 57 57 58 58 59 59 58 58 58 59 55 55 45 32 40 44 74 71 68 68 67 67 69 55 40 36 34 33 33 35 38 43 46 48 49 49 51 52 54 52 52 55 57 57 60 64 62 64 65 65 63 63 64 66 65 65 66 64 64 66 69 66 62 64 64 64 64 64 64 65
54 54 54 54 54 54 54 55 55 55 55 55 55 55 56 56 56 56 56 56 57 58 58 59 59 59 59 57 54 51 41 32 44 43 71 72 70 69 68 67 68 44 38 33 32 31 32 34 36 40 46 48 48 49 50 51 53 53 51 49 48 55 57 63 62 64 64 64 63 65 65 65 65 63 66 64 68 68 68 67 66 64 64 64 64 63 64 65
54 54 54 54 54 54 54 54 54 54 55 54 55 55 55 56 56 56 56 56 56 57 58 60 60 59 59 56 47 39 45 41 43 46 73 68 64 63 67 63 52 41 36 33 31 29 31 34 37 40 41 47 49 48 50 50 50 49 49 49 48 48 61 63 63 64 64 63 65 64 63 64 64 63 65 63 65 68 67 66 65 63 63 63 63 63 63 64
54 54 54 54 54 54 54 54 54 54 54 55 55 55 55 55 55 56 56 56 56 57 58 60 60 60 59 53 39 39 37 41 48 58 69 67 62 65 61 57 51 40 36 34 32 29 33 33 36 40 40 41 43 44 46 48 46 47 47 47 45 49 61 61 63 63 63 64 64 61 62 64 65 65 62 65 64 67 67 66 64 63 62 62 63 63 62 64
53 53 53 53 53 54 54 54 54 54 54 55 55 55 55 55 55 55 56 56 56 57 58 59 60 59 55 50 45 34 33 42 55 67 63 64 64 61 55 55 51 43 41 38 32 29 33 35 36 38 43 43 44 43 46 47 46 42 36 34 34 49 61 61 62 62 63 64 62 60 62 64 65 62 61 64 65 66 66 65 63 61 62 62 62 62 62 64
53 53 53 53 53 53 54 54 54 54 54 55 55 54 55 55 55 55 56 56 56 57 58 60 60 57 50 49 42 36 42 46 63 63 64 63 59 56 52 55 52 45 43 41 33 29 30 37 38 43 43 41 40 40 43 43 40 33 32 31 27 55 59 59 61 63 63 61 61 60 61 63 64 62 62 63 65 65 64 63 63 61 61 61 62 62 62 63
53 53 53 53 53 53 53 54 54 54 55 54 54 55 55 55 55 55 55 56 56 57 58 60 61 56 52 44 43 40 43 44 62 63 64 61 56 54 52 54 51 46 43 41 38 32 29 31 39 42 41 42 38 38 38 38 37 34 33 29 45 57 57 59 60 63 62 61 61 61 60 60 61 60 63 63 64 64 63 63 62 60 60 60 60 60 61 62
53 53 53 53 53 53 54 54 54 54 54 54 54 54 55 54 54 55 55 55 57 57 58 61 60 57 51 44 44 44 45 43 49 61 64 60 58 57 53 54 50 46 43 39 38 37 33 33 40 40 40 39 38 35 38 38 37 34 32 26 55 55 55 59 61 62 61 61 60 58 52 55 59 60 62 63 63 63 62 61 61 60 59 59 60 59 60 61
53 53 53 53 53 54 54 54 54 54 54 54 54 54 54 54 54 55 55 56 56 57 60 61 58 55 50 44 44 49 48 47 45 59 61 61 57 57 55 54 50 46 43 38 36 35 34 34 39 39 39 37 35 39 36 33 34 30 31 26 45 53 53 58 60 60 59 60 60 57 49 52 58 59 61 63 63 62 61 60 59 59 58 58 59 58 59 60
53 53 53 53 53 53 53 54 54 54 54 54 53 53 53 53 54 56 56 56 57 58 60 60 57 52 50 49 51 52 64 50 40 43 58 59 50 52 54 54 50 45 41 38 34 34 33 35 36 34 34 40 37 36 35 31 31 31 28 26 23 52 41 57 60 59 56 58 60 56 50 51 56 59 60 63 62 61 60 60 60 59 58 57 58 57 58 59
53 53 53 53 53 53 53 54 53 54 54 53 52 52 53 54 56 57 56 57 58 59 60 55 55 52 48 44 45 57 43 32 29 30 41 56 42 37 51 53 51 47 41 37 35 34 33 34 34 40 42 44 41 36 31 31 31 31 26 27 23 26 24 55 58 59 56 58 59 57 50 54 54 59 60 62 61 61 60 60 60 61 58 57 58 57 57 58
53 53 53 53 53 53 54 53 53 54 53 52 52 52 53 56 58 58 58 58 58 60 56 52 54 53 39 45 48 43 36 30 30 25 28 33 30 31 43 43 42 43 40 36 34 33 38 36 45 45 43 42 37 34 33 31 30 31 26 28 25 19 27 50 56 58 57 57 57 58 55 53 55 57 59 61 61 60 60 60 60 61 60 57 58 57 56 57
53 53 53 53 54 54 53 53 53 53 52 51 52 52 51 56 60 59 58 58 58 55 51 52 51 47 34 36 30 31 34 19 19 23 25 28 23 23 33 39 40 38 35 35 40 32 41 41 42 40 35 34 32 31 32 31 30 29 31 28 24 20 21 22 52 56 56 56 56 57 56 55 54 57 59 60 61 60 60 60 60 60 60 58 58 57 57 57
53 53 53 53 53 53 53 53 53 52 52 52 52 54 55 58 56 50 51 53 48 43 42 46 44 33 20 28 37 39 31 16 18 21 22 21 26 24 34 34 40 35 36 35 38 36 42 42 40 40 37 33 33 31 30 31 30 29 29 26 23 21 21 19 20 40 55 55 54 55 55 55 54 56 58 59 60 60 60 61 60 60 60 58 58 58 57 57
53 52 53 53 53 53 53 53 52 51 51 50 47 46 36 29 28 29 36 50 42 31 32 42 48 49 41 39 40 34 19 20 15 17 19 23 20 20 20 31 37 39 39 37 39 39 41 41 38 37 38 34 33 31 30 30 30 30 31 31 28 27 27 24 19 36 56 54 53 54 55 54 54 56 57 59 59 59 60 60 60 60 59 58 58 58 58 57
53 53 53 53 53 53 53 53 52 51 51 49 48 36 31 31 27 25 28 28 31 35 35 35 45 39 32 35 32 27 13 11 17 16 20 48 20 18 18 30 34 35 38 38 39 41 40 39 39 38 36 36 34 32 31 31 31 30 29 29 28 28 26 27 24 24 54 53 52 53 53 53 53 56 57 58 58 58 58 59 59 59 59 58 58 58 58 58
53 53 53 53 53 53 53 52 51 51 51 46 45 34 35 34 29 30 30 27 29 28 29 30 31 26 27 29 28 26 15 9 8 8 14 23 19 16 21 32 33 32 35 36 36 38 38 37 38 38 37 35 34 33 31 30 30 29 28 28 27 27 26 23 21 20 40 53 48 50 51 51 52 55 57 58 58 57 58 58 59 59 59 58 58 59 59 58
53 53 53 53 53 52 52 51 51 51 48 43 40 37 33 33 34 33 30 27 26 28 27 27 26 25 24 23 20 19 14 6 5 7 15 24 18 17 27 30 31 33 34 35 34 35 36 36 37 37 36 35 34 33 32 31 30 28 28 28 26 26 22 20 19 18 31 50 47 48 49 50 55 56 56 58 58 57 57 58 59 60 59 58 59 59 59 59
53 53 53 53 52 52 52 51 50 46 43 42 42 37 36 34 34 29 27 24 21 22 26 26 25 23 20 19 15 7 6 8 6 8 33 20 17 23 27 29 31 32 31 33 33 33 35 35 36 37 35 34 33 33 32 30 29 29 28 27 27 27 22 21 21 18 18 29 44 46 50 50 54 54 55 56 58 57 57 57 58 60 60 59 60 59 60 59
53 53 53 53 52 52 50 50 44 43 44 43 42 40 39 38 39 30 29 27 24 26 29 27 31 24 17 18 16 15 10 12 7 16 37 20 22 27 26 30 28 28 31 32 33 32 32 33 34 34 33 32 32 32 32 30 29 29 28 27 27 27 25 22 19 16 15 14 30 41 44 46 51 54 54 55 56 56 56 56 57 58 59 59 59 59 59 60
54 53 53 53 52 52 50 42 43 45 44 41 38 40 42 41 38 36 30 24 20 21 22 20 18 19 17 14 13 13 9 11 10 10 33 19 36 19 22 18 28 25 27 29 32 32 31 33 32 31 31 31 31 31 32 31 29 29 28 27 26 25 23 21 16 21 18 17 38 45 40 43 49 52 54 54 55 55 56 56 56 58 58 58 59 59 59 59
53 53 53 52 52 50 42 39 44 45 38 37 39 42 42 41 41 34 30 28 23 24 19 18 14 15 20 14 13 11 4 7 15 19 17 41 17 27 13 14 18 23 26 26 29 26 29 30 29 29 30 30 30 29 30 30 29 27 28 20 22 20 18 17 15 15 20 29 24 32 46 44 45 49 53 54 54 55 55 56 56 57 58 58 58 59 59 59
53 53 52 52 51 51 47 47 46 42 40 39 43 43 42 42 39 33 30 20 19 23 14 14 15 19 17 14 12 8 10 13 13 16 22 18 24 17 11 12 13 14 16 17 21 21 17 18 25 26 27 28 29 30 30 29 27 27 27 22 19 17 17 17 17 16 17 25 36 32 30 42 43 48 52 53 53 54 55 55 56 57 57 58 58 58 59 59
53 53 52 52 51 50 50 48 46 42 43 45 43 43 42 41 32 29 27 18 19 15 20 16 20 17 16 14 10 13 11 15 11 13 19 18 17 17 12 15 15 14 16 12 11 14 17 19 21 22 20 21 25 28 29 27 26 27 27 24 22 22 22 20 17 19 23 14 16 30 29 39 22 30 49 52 52 53 54 55 56 56 57 58 58 58 58 59
53 52 52 51 50 50 48 49 47 46 46 45 44 42 43 37 32 30 24 13 17 12 15 16 14 14 15 12 12 13 10 12 14 17 16 15 18 17 17 18 12 14 14 13 14 13 13 34 20 18 16 16 18 21 25 28 27 26 21 22 21 22 24 35 31 26 23 15 20 18 15 18 13 30 49 51 51 52 53 55 56 56 57 58 58 58 58 59
52 51 51 51 48 48 47 41 43 46 46 44 43 40 37 36 35 28 17 17 17 15 17 15 14 16 12 11 9 12 12 15 11 14 8 14 17 17 18 15 18 15 19 16 8 10 16 9 11 15 24 19 21 19 24 24 27 26 23 19 18 21 23 25 27 27 16 18 27 28 17 10 10 22 35 51 52 53 53 53 54 55 57 58 58 59 58 59
51 50 51 50 50 50 43 35 40 46 45 45 43 35 32 25 27 23 24 25 16 14 15 13 18 15 14 14 12 22 10 11 13 10 11 15 16 15 15 16 21 10 17 17 8 17 14 14 14 11 42 15 15 20 20 22 21 23 22 24 19 22 20 17 19 15 14 15 19 22 14 13 17 23 39 47 51 52 53 53 54 55 56 58 58 59 59 59
50 50 50 50 52 50 49 47 48 47 46 45 37 35 32 28 19 23 21 19 16 18 14 21 14 16 14 11 12 15 12 8 12 14 19 19 20 18 16 14 15 12 15 22 18 15 14 17 14 13 14 21 15 16 13 19 19 18 19 21 17 15 15 13 23 20 19 19 20 20 21 16 22 19 25 43 50 52 52 53 54 54 56 57 58 59 59 59
50 50 49 51 51 50 50 52 50 48 46 46 34 34 24 19 22 32 20 20 18 20 20 17 16 15 14 10 13 14 13 18 19 19 20 20 15 14 14 14 14 14 19 21 13 15 12 13 10 12 11 14 14 13 12 17 17 19 18 16 18 21 16 15 18 13 13 17 20 22 13 17 10 16 18 31 45 51 52 53 54 54 55 57 58 59 59 59
49 49 49 50 52 51 51 51 50 50 46 36 30 29 20 21 26 20 21 20 20 19 18 17 14 12 12 12 13 13 13 15 18 17 17 16 16 16 15 13 16 16 19 16 22 23 14 16 17 17 14 15 13 14 16 15 20 22 20 21 18 18 29 15 23 19 23 17 15 19 17 22 19 28 43 43 33 44 51 52 53 53 55 56 58 59 59 59
49 50 51 50 53 53 51 51 50 48 38 33 25 19 15 21 17 19 18 22 21 18 16 14 13 12 12 12 16 12 13 16 18 17 17 16 16 16 17 15 17 20 17 14 18 13 24 17 15 14 17 14 14 17 14 19 20 22 19 19 19 19 24 25 34 30 24 19 15 30 20 19 23 30 38 47 49 49 46 47 50 52 53 56 57 58 59 59
49 50 47 50 51 51 51 50 50 43 38 33 21 20 28 22 19 18 32 18 17 18 15 12 13 12 13 12 13 13 11 10 11 15 16 19 16 17 17 17 18 22 24 20 16 15 14 13 13 16 15 16 15 16 16 13 14 16 15 15 17 24 22 20 14 23 21 13 17 21 18 25 26 24 33 42 48 51 52 52 51 47 50 55 57 58 59 59
49 49 52 54 52 50 51 49 42 38 36 32 25 34 21 19 21 20 20 18 16 16 14 15 15 16 16 18 12 13 13 10 12 16 16 17 16 19 19 18 18 21 24 23 17 20 16 12 12 17 18 17 16 15 12 13 14 14 13 18 23 21 17 25 20 14 15 15 17 18 26 31 31 31 30 32 44 51 52 53 53 53 49 52 56 58 59 59
50 48 38 36 38 47 48 45 39 40 34 24 28 31 29 20 22 20 21 20 17 18 14 15 15 15 20 13 16 14 16 14 17 17 18 17 17 20 21 21 19 22 24 23 20 26 22 12 15 15 18 17 17 15 14 14 15 17 21 15 19 22 28 22 20 24 19 19 17 14 23 29 34 29 29 30 36 51 52 52 53 53 54 50 54 57 58 59
47 42 35 40 35 43 47 43 38 35 30 22 27 22 24 19 20 20 20 20 17 16 16 17 16 16 15 14 15 14 17 18 17 18 19 21 17 22 22 23 22 24 22 26 22 25 23 23 15 17 19 16 16 18 15 16 14 15 13 12 13 17 22 21 22 21 20 20 19 18 23 29 30 31 30 29 36 51 51 52 52 53 54 55 52 55 58 59
49 42 37 40 42 41 36 33 32 31 28 26 23 24 23 20 20 19 19 19 19 19 16 16 16 15 17 17 16 17 19 21 22 21 20 22 21 20 23 22 24 24 26 26 21 24 26 24 18 21 15 15 16 21 20 19 18 15 13 11 12 12 14 19 17 26 23 21 18 19 23 29 29 34 29 29 38 51 51 51 51 52 53 55 55 54 58 59
40 31 30 37 45 36 31 28 33 36 22 21 19 22 29 30 19 19 19 19 19 19 20 18 19 21 19 18 19 20 20 22 22 23 24 22 24 22 23 24 26 27 25 25 26 25 30 29 20 17 18 15 17 20 22 22 19 17 15 13 12 13 15 21 19 22 25 25 29 25 24 28 36 33 28 28 45 52 51 50 50 51 52 54 56 55 57 58
44 38 41 46 42 32 27 24 37 31 22 21 24 20 21 20 21 20 20 21 19 20 20 21 22 23 22 23 23 22 23 23 23 23 26 26 24 26 25 25 26 30 27 27 26 24 34 23 16 20 23 23 23 22 26 19 18 16 16 15 13 13 13 14 15 22 24 25 26 26 28 27 33 27 27 26 46 54 54 51 50 50 51 53 54 56 56 58
44 45 43 43 38 31 26 26 27 27 23 22 20 19 21 20 20 21 22 25 22 21 23 23 24 24 24 24 24 24 26 23 25 25 25 30 26 27 28 26 27 30 30 29 26 23 18 24 17 17 16 19 18 25 22 21 18 18 16 15 14 14 14 16 24 30 26 26 21 25 22 27 24 26 29 39 51 52 55 55 51 50 50 51 53 55 55 58
44 45 47 47 38 29 26 28 29 27 30 25 24 24 22 20 22 22 24 24 27 25 24 25 27 27 25 25 25 25 26 23 25 26 25 31 29 30 26 28 29 29 33 35 39 33 21 26 22 12 14 13 14 16 18 17 18 20 17 14 15 13 14 15 14 20 20 30 24 25 26 29 24 25 41 49 50 51 54 56 53 51 51 51 52 54 55 56
39 31 35 35 34 31 31 34 29 29 32 33 27 27 26 25 24 25 24 24 26 27 26 29 27 26 27 26 26 25 25 27 26 27 30 28 29 30 29 29 28 27 34 37 40 33 26 30 28 25 21 17 23 25 26 28 23 15 15 15 15 14 17 19 24 25 17 23 19 26 27 22 22 20 42 48 48 50 53 55 55 52 51 51 51 53 54 55
42 36 35 32 35 32 30 31 32 31 30 34 28 29 27 27 27 26 26 24 27 27 28 28 27 26 28 28 29 28 30 28 30 29 29 29 32 30 30 31 29 35 35 34 39 34 31 23 26 29 26 25 27 27 22 26 20 17 18 18 17 15 18 20 16 15 24 17 20 34 34 23 22 20 40 48 48 49 52 54 55 53 51 51 51 52 56 53
33 37 39 39 29 29 31 29 30 32 33 29 30 32 31 27 27 28 28 26 29 28 27 28 30 31 30 28 30 28 30 29 29 28 31 30 30 29 28 30 28 36 35 26 36 31 27 23 25 25 25 25 22 23 25 24 23 24 22 21 20 19 17 16 22 20 23 16 11 21 27 28 22 20 42 48 48 48 50 54 55 54 52 51 51 51 52 53
41 42 41 42 33 34 33 32 32 31 33 36 38 32 30 28 27 29 29 26 26 28 30 27 29 31 31 33 31 28 29 26 26 30 28 27 29 28 26 30 28 29 27 28 28 36 26 25 27 24 26 26 26 26 26 24 24 23 24 23 21 20 18 16 15 15 19 22 22 19 24 29 20 29 46 47 48 47 48 52 54 54 52 51 50 51 52 53
41 39 38 43 38 37 35 32 33 30 29 36 32 31 33 32 29 29 32 27 27 27 32 27 30 31 32 32 34 30 30 29 28 27 30 28 27 27 26 27 23 26 30 28 29 30 22 25 30 26 24 25 26 29 25 24 26 24 23 22 21 19 17 15 16 20 31 27 27 28 25 25 25 40 45 47 46 47 47 48 51 53 52 51 51 51 52 53
45 44 43 38 34 38 42 35 31 31 30 31 31 33 36 32 32 33 31 33 29 26 31 27 31 31 35 33 33 32 33 32 31 29 29 27 25 29 25 29 26 26 30 29 31 32 26 23 31 28 21 21 24 24 24 26 24 21 20 22 20 18 20 17 20 23 28 29 34 33 36 36 40 46 48 45 45 46 46 48 49 51 52 51 51 51 52 53
46 47 45 39 33 40 31 33 33 31 29 32 37 34 34 32 35 35 28 32 31 32 33 30 34 29 31 29 29 31 32 30 30 28 29 27 26 28 28 28 28 27 28 29 32 27 29 27 23 24 21 22 24 26 26 24 15 12 19 20 24 24 25 21 21 27 30 35 34 38 36 44 46 48 46 46 45 46 47 49 49 49 51 51 51 52 52 52